Presure
203 195 200 205 200 205 198 197 210 241 208 182 212 204 196 232 215 222 220 241 248 247 223 217 199 198 196 190 189 178 191 183
198 184 200 200 203 198 197 203 211 241 209 185 207 226 192 194 216 217 219 229 221 208 197 207 184 200 196 180 182 193 181 187
213 201 199 198 200 195 195 192 213 243 199 188 193 209 199 215 215 211 217 224 224 207 192 194 192 190 196 190 191 189 198 162
231 221 194 200 194 205 207 193 207 243 195 186 202 197 213 205 205 206 210 207 215 203 204 190 194 196 186 173 181 187 188 193
223 221 200 201 211 235 194 216 219 245 195 187 186 200 207 227 201 200 200 215 215 201 201 208 192 189 194 194 192 186 191 180
223 219 213 220 207 230 221 220 216 240 194 179 187 199 193 183 228 199 191 195 213 201 193 194 185 203 185 182 187 183 182 181
210 217 216 160 222 235 230 215 252 231 194 178 181 183 197 196 227 214 188 189 190 191 205 201 185 184 193 189 185 184 172 176
229 222 220 169 226 216 217 250 245 224 191 178 182 180 198 183 208 235 206 192 184 180 191 201 191 187 199 192 184 197 190 188
227 224 219 219 223 233 228 252 240 221 193 181 180 174 195 187 193 201 226 232 195 189 185 177 175 178 182 200 197 178 200 183
234 237 227 230 232 239 240 254 238 221 193 186 179 186 190 182 188 190 186 203 221 222 187 192 192 192 185 185 188 191 192 194
214 233 198 230 239 244 248 255 234 210 193 192 181 182 189 182 190 193 183 181 190 193 206 206 203 192 188 189 191 203 236 253
254 254 242 239 245 246 236 259 231 181 195 193 183 189 188 190 183 184 189 183 193 186 186 184 191 196 204 211 211 201 206 196
263 263 257 253 255 245 247 266 226 182 190 182 181 185 184 192 182 183 184 183 185 184 193 197 172 197 173 172 173 208 176 184
334 352 355 340 294 258 264 233 219 195 188 199 185 178 185 186 190 184 177 188 184 183 177 187 191 193 188 188 189 194 187 198
264 289 343 285 257 274 235 221 213 195 209 188 196 183 181 185 187 188 191 185 183 185 182 177 186 187 198 185 190 189 189 173
247 256 249 234 245 245 233 218 206 205 191 189 206 187 185 183 187 188 185 189 195 197 181 183 184 187 181 183 191 186 183 188
240 224 246 242 239 229 214 214 193 201 191 189 184 200 192 188 189 186 196 191 189 188 188 169 183 186 183 179 179 196 176 173
209 220 234 228 219 212 213 211 202 198 197 193 184 198 197 199 191 192 190 187 189 187 191 194 180 193 179 185 184 187 194 194
231 207 234 212 210 211 205 191 209 199 185 200 197 195 183 192 197 203 198 196 192 193 194 186 184 187 190 181 191 183 187 186
Wind_Speed
65 64 61 57 42 43 42 39 39 34 30 40 25 29 35 19 25 22 20 10 13 45 42 49 44 46 49 46 39 37 42 44
65 62 64 56 49 38 44 41 38 32 33 38 24 21 34 34 24 22 23 17 19 28 31 39 41 42 51 41 43 50 43 45
73 65 61 58 45 42 43 41 37 31 32 34 29 22 27 23 25 23 25 24 26 36 31 35 40 43 45 49 49 49 50 43
65 66 62 61 51 44 42 42 36 31 31 36 22 25 17 26 26 23 27 24 33 32 43 39 47 50 41 31 37 42 40 39
59 61 61 60 53 45 44 44 36 31 33 35 33 24 19 17 25 28 26 35 32 29 35 48 47 44 48 49 47 41 42 34
56 59 63 59 47 44 41 42 36 33 34 40 32 25 27 32 31 35 29 27 38 32 34 36 34 49 41 41 46 43 40 40
57 59 59 52 52 46 41 42 40 36 36 40 36 35 22 21 19 37 34 35 30 33 42 46 41 41 50 53 51 50 37 46
52 55 57 52 52 44 42 40 40 40 40 40 35 37 21 29 16 23 37 42 37 36 35 42 43 46 48 46 48 54 52 50
54 56 58 58 55 53 38 42 43 44 42 42 38 38 22 27 26 20 24 30 45 46 48 42 43 46 43 52 55 45 55 50
58 59 61 63 60 58 42 46 46 47 42 43 41 36 31 32 30 29 30 28 28 35 44 52 56 60 62 64 66 64 63 65
55 61 48 64 62 59 44 44 47 48 43 45 43 40 38 39 31 29 33 36 33 33 33 39 47 52 53 54 56 52 29 27
67 66 68 67 66 57 41 45 50 46 46 44 45 44 41 40 39 36 34 37 34 37 38 38 40 41 39 37 38 43 38 47
67 66 67 69 66 52 41 49 51 49 47 46 48 46 45 42 44 42 41 40 38 40 34 36 44 39 44 44 44 35 46 48
27 39 47 54 54 48 45 51 53 53 51 49 50 47 49 46 46 47 48 45 48 47 51 43 41 42 45 46 44 41 45 39
19 20 38 35 40 40 51 52 53 54 52 50 53 52 51 53 51 51 50 53 54 53 51 50 46 47 43 46 46 47 47 48
21 18 34 39 38 46 51 51 50 52 51 53 56 55 56 58 59 58 57 56 55 51 46 47 48 49 53 50 46 51 54 52
29 35 35 46 49 47 46 48 53 52 53 54 59 61 63 64 63 61 63 58 55 53 53 54 55 53 54 56 57 51 60 60
46 47 42 46 46 46 47 50 53 55 56 59 62 65 68 71 65 64 58 57 60 56 57 57 59 54 62 60 60 59 57 58
59 51 50 51 52 51 53 60 56 60 57 60 65 68 60 65 64 69 67 65 63 63 62 62 64 63 63 63 62 62 63 63
Wind_Direction
270 270 275 278 279 286 278 276 283 283 265 267 280 272 277 241 272 269 250 195 201 186 196 196 208 221 229 234 233 249 244 251
268 260 271 272 275 272 275 279 283 279 261 261 272 278 270 276 262 259 245 206 199 208 209 205 223 213 216 242 244 231 252 259
263 266 267 269 269 264 268 271 279 276 252 258 263 269 264 251 250 255 241 213 177 190 224 222 228 233 232 237 239 247 245 244
262 264 262 267 262 269 274 266 271 267 245 256 255 253 267 262 251 249 240 240 193 204 206 225 224 229 239 244 245 245 258 261
261 262 260 262 270 272 263 271 264 254 240 251 254 255 261 260 244 252 244 230 227 237 221 217 229 239 241 242 249 265 265 260
261 261 261 264 264 266 260 262 253 241 233 248 250 250 250 258 212 236 256 248 233 242 247 251 251 233 256 259 261 268 271 274
256 257 259 253 263 258 251 253 248 231 229 245 250 256 244 250 224 214 244 259 247 249 241 242 255 258 252 254 262 269 265 268
253 254 256 251 256 251 246 251 235 224 228 242 243 252 239 244 226 216 222 235 254 265 258 249 261 267 258 258 268 263 271 276
249 248 251 251 253 252 244 238 227 218 225 235 238 248 234 243 242 229 219 221 229 239 248 263 273 273 271 261 267 279 270 275
253 251 249 251 248 247 240 230 222 215 222 231 238 235 232 240 242 237 238 233 226 230 243 244 249 251 259 264 266 266 268 269
251 246 243 246 245 245 238 228 218 218 220 227 236 236 232 235 230 231 242 247 241 238 236 240 244 249 254 255 257 259 255 255
253 246 241 242 242 240 229 229 214 237 217 223 234 234 236 233 234 236 233 240 240 247 248 250 249 249 247 243 247 259 257 266
256 250 242 241 240 237 232 219 211 237 223 226 236 237 240 234 238 237 237 238 236 240 239 238 258 245 261 265 267 252 271 270
233 223 218 215 229 233 221 206 208 220 231 218 230 244 242 242 239 238 242 238 238 239 244 241 241 243 247 249 249 250 257 252
206 207 190 189 213 206 203 205 210 223 217 227 224 236 242 245 244 242 241 241 241 242 245 249 247 248 251 256 253 257 258 266
190 185 193 208 214 205 204 208 216 219 227 229 228 233 237 243 244 244 248 247 247 247 254 253 254 255 257 258 261 260 260 263
180 208 219 206 208 207 206 209 221 221 227 230 239 233 236 243 243 248 246 252 254 252 250 259 255 254 257 260 262 267 263 266
210 204 206 209 212 216 214 213 218 223 227 230 239 238 240 241 247 250 251 252 254 256 257 257 258 260 258 261 262 267 273 272
202 215 206 211 215 216 219 228 219 224 238 237 239 240 253 252 252 249 253 254 255 256 258 258 257 258 262 264 268 265 268 271